Regional Weather Roundup
Issued by NWS Bismarck, ND

Home | Current Version | Previous Version | Text Only | Print | Product List | Glossary On
Versions: 1 2 3 4 5 6 7 8 9 10 11 12 13 14 15 16 17 18 19 20 21 22 23 24 25 26 27 28 29 30 31 32 33 34 35 36 37 38 39 40 41 42 43 44 45 46 47 48 49 50
000
ASUS43 KBIS 191459
RWRBIS

NWR BROADCAST TEXT
NATIONAL WEATHER SERVICE BISMARCK ND
1000 AM CDT FRI SEP 19 2014

NOTE: "FAIR" INDICATES FEW OR NO CLOUDS BELOW 12,000 FEET WITH NO
SIGNIFICANT WEATHER AND/OR OBSTRUCTIONS TO VISIBILITY.


CITY           SKY/WX    TMP DP  RH WIND       PRES   REMARKS
WILLISTON      SUNNY     68  49  50 W17G24    29.63R
MINOT          PTSUNNY   67  56  67 SW14      29.56R
MINOT AFB      NOT AVBL
BISMARCK       PTSUNNY   72  61  68 SW13      29.62R
DICKINSON      PTSUNNY   65  54  67 W14       29.69R
GARRISON         N/A     67  58  72 W12       29.60R
HETTINGER ARPT CLOUDY    66  56  70 W15       29.74R
JAMESTOWN      NOT AVBL
CARRINGTON     FAIR      68  64  88 SW13      29.58R
CROSBY         FAIR      68  48  49 W18G24    29.59R
HARVEY         FAIR      68  59  73 W9        29.57R
HAZEN          FAIR      66  55  68 W10       29.64R
LINTON         FAIR      72  66  83 SW14      29.65R
MANDAN         FAIR      68  59  73 SW13      29.64R
OAKES            N/A     63  63 100 S17G23    29.64R
RUGBY          FAIR      63  61  94 S6        29.53F
WATFORD CITY   FAIR      68  48  49 W14G20    29.64R
$$

CITY           SKY/WX    TMP DP  RH WIND       PRES   REMARKS
GRAND FORKS    CLOUDY    66  61  84 S15       29.52F
GRAND FORKS AF NOT AVBL
DEVILS LAKE    CLOUDY    66  57  72 W10       29.54R
FARGO          LGT RAIN  64  59  83 S14       29.63R
CAVALIER       FAIR      64  63  94 S9        29.48S
GRAFTON        PTSUNNY   63  63 100 S10G22    29.51S
GWINNER        CLOUDY    64  64 100 S17       29.63F
LANGDON        FAIR      64  61  88 W14       29.55R
ROLLA          PTSUNNY   63  63 100 CALM      29.53S
$$

CITY           SKY/WX    TMP DP  RH WIND       PRES   REMARKS
ABERDEEN       CLOUDY    63  62  97 SW5       29.68R FOG
MOBRIDGE       CLOUDY    65  64  97 SW6       29.65R
RAPID CITY     CLOUDY    69  54  58 CALM      29.83R
GLASGOW        SUNNY     65  47  52 W18       29.70R
SIDNEY         SUNNY     70  50  49 W16       29.69R
WOLF POINT     SUNNY     62  51  67 SW12      29.69R
GLENDIVE       SUNNY     70  52  52 W12       29.74R
MILES CITY     MOSUNNY   67  52  58 W10       29.79R
BAKER          MOSUNNY   66  54  65 W13       29.79R
$$

CITY           SKY/WX    TMP DP  RH WIND       PRES   REMARKS
BILLINGS       MOSUNNY   60  51  72 SW12      29.89R
GREAT FALLS    CLOUDY    62  45  53 SW16      29.88R
$$



USA.gov is the U.S. government's official web portal to all federal, state and local government web resources and services.